This is the latest recevied weather packets stored in our database for station/object KC9Q. If no packets are shown the sender has not sent any weather packets the latest 10 day(s).
| Time | Temp. | Humidity | Pressure | Rain* | Wind** | Luminosity | Snow |
|---|---|---|---|---|---|---|---|
| 1778053942 | 8.89° C | 95% | 1009.8 hPa | 0 mm | - | 0 W/m² | - |
| 1778053640 | 8.89° C | 94% | 1009.5 hPa | 0 mm | - | 0 W/m² | - |
| 1778053336 | 9.44° C | 94% | 1009.9 hPa | 0 mm | - | 0 W/m² | - |
| 1778053034 | 9.44° C | 96% | 1010 hPa | 0 mm | - | 0 W/m² | - |
| 1778052731 | 9.44° C | 95% | 1009.8 hPa | 0 mm | - | 0 W/m² | - |
| 1778052428 | 9.44° C | 96% | 1009.8 hPa | 0 mm | - | 0 W/m² | - |
| 1778052126 | 9.44° C | 95% | 1009.4 hPa | 0 mm | - | 0 W/m² | - |
| 1778051823 | 9.44° C | 95% | 1009.7 hPa | 0 mm | - | 0 W/m² | - |
| 1778051521 | 10° C | 96% | 1010.3 hPa | 0 mm | - | 0 W/m² | - |
| 1778051218 | 10° C | 96% | 1010.3 hPa | 0 mm | - | 0 W/m² | - |
| 1778050915 | 10° C | 97% | 1010.1 hPa | 0 mm | - | 0 W/m² | - |
| 1778050613 | 10° C | 96% | 1010.2 hPa | 0 mm | - | 0 W/m² | - |
| 1778050309 | 10° C | 97% | 1010.2 hPa | 0 mm | - | 0 W/m² | - |
| 1778050006 | 10° C | 96% | 1010.5 hPa | 0 mm | - | 0 W/m² | - |
| 1778049702 | 10° C | 97% | 1010.3 hPa | 0 mm | - | 0 W/m² | - |
| 1778049400 | 10° C | 97% | 1010 hPa | 0 mm | - | 0 W/m² | - |
| 1778049096 | 10° C | 97% | 1009.9 hPa | 0 mm | - | 0 W/m² | - |
| 1778048795 | 10° C | 97% | 1010 hPa | 0 mm | - | 0 W/m² | - |
| 1778048492 | 10° C | 97% | 1009.4 hPa | 0 mm | - | 0 W/m² | - |
| 1778048187 | 10° C | 98% | 1009.4 hPa | 0 mm | - | 0 W/m² | - |
| 1778047885 | 9.44° C | 98% | 1009.8 hPa | 0.51 mm | - | 0 W/m² | - |
| 1778047584 | 9.44° C | 99% | 1010.6 hPa | 4.32 mm | - | 0 W/m² | - |
| 1778047280 | 9.44° C | 98% | 1010.1 hPa | 13.21 mm | - | 0 W/m² | - |
| 1778046978 | 10° C | 97% | 1010.2 hPa | 13.72 mm | - | 0 W/m² | - |
| 1778046674 | 10° C | 97% | 1010.5 hPa | 1.78 mm | - | 0 W/m² | - |
* Rain latest hour (hover to see other rain measurements)
** Current wind speed in m/s (hover to see current wind gust speed)